Weather History for MMTP - October, 2012

Change the Weather History Date:

Sunday, October 7, 2012

  Actual Average Record
Temperature  
Mean Temperature 83 °F -  
Max Temperature 89 °F 84 °F 89 °F (2001)
Min Temperature 77 °F 73 °F 71 °F (2000)
Cooling Degree Days 18    
Growing Degree Days 33 (Base 50)    
Moisture  
Dew Point 75 °F    
Average Humidity 82    
Maximum Humidity 94    
Minimum Humidity 62    
Precipitation  
Precipitation 0.00 in - - ()
Sea Level Pressure  
Sea Level Pressure 29.85 in    
Wind  
Wind Speed 2 mph ()    
Max Wind Speed 12 mph    
Max Gust Speed -    
Visibility 10.0 miles    
Events      
Averages and records for this station are not official NWS values.
T = Trace of Precipitation, MM = Missing Value Source: Averaged Metar Reports

Daily Weather History Graph

Daily Weather History Graph

Search for Another Location

Airport or City:

Trip Planner

Search our weather history database for the weather conditions in past years. The results will help you decide how hot, cold, wet, or windy it might be!

Date:

Astronomy

Oct. 07, 2012 Rise Set
Actual Time 6:59 AM CDT 6:54 PM CDT
Civil Twilight 6:38 AM CDT 7:15 PM CDT
Nautical Twilight 6:13 AM CDT 7:40 PM CDT
Astronomical Twilight 5:48 AM CDT 8:05 PM CDT
Moon No Moon Rise 1:00 PM CDT
Length of Visible Light 12h 37m
Length of Day
11h 54m
Waning Gibbous, 56% of the Moon is Illuminated
Oct 7
Waning Gibbous
Oct 8
Last Quarter
Oct 15
New
Oct 21
First Quarter
Oct 29
Full

Hourly Weather History & Observations

Time (CDT) Temp. Heat Index Dew Point Humidity Pressure Visibility Wind Dir Wind Speed Gust Speed Precip Events Conditions
12:40 AM 78.8 °F - 75.2 °F 89% 29.83 in 10.0 mi Calm Calm - N/A   Mostly Cloudy
1:40 AM 78.8 °F - 75.2 °F 89% 29.87 in 10.0 mi Calm Calm - N/A   Mostly Cloudy
2:40 AM 78.8 °F - 75.2 °F 89% 29.87 in 10.0 mi Calm Calm - N/A   Mostly Cloudy
3:40 AM 78.8 °F - 75.2 °F 89% 29.87 in 10.0 mi Calm Calm - N/A   Mostly Cloudy
3:45 AM 77.0 °F - 75.2 °F 94% 29.88 in 10.0 mi Calm Calm - N/A   Mostly Cloudy
4:40 AM 77.0 °F - 73.4 °F 89% 29.85 in 10.0 mi Calm Calm - N/A   Mostly Cloudy
5:40 AM 77.0 °F - 73.4 °F 89% 29.81 in 10.0 mi Calm Calm - N/A   Mostly Cloudy
6:40 AM 77.0 °F - 73.4 °F 89% 29.85 in 10.0 mi Calm Calm - N/A   Mostly Cloudy
7:40 AM 77.0 °F - 73.4 °F 89% 29.84 in 10.0 mi Calm Calm - N/A   Mostly Cloudy
8:40 AM 80.6 °F 85.4 °F 73.4 °F 79% 29.86 in 10.0 mi Calm Calm - N/A   Scattered Clouds
9:40 AM 84.2 °F 92.3 °F 75.2 °F 74% 29.88 in 10.0 mi Calm Calm - N/A   Scattered Clouds
10:40 AM 87.8 °F 97.6 °F 75.2 °F 66% 29.88 in 10.0 mi Calm Calm - N/A   Scattered Clouds
11:40 AM 89.6 °F 99.8 °F 75.2 °F 62% 29.88 in 10.0 mi WSW 9.2 mph - N/A   Mostly Cloudy
12:50 PM 87.8 °F 97.6 °F 75.2 °F 66% 29.80 in 10.0 mi WSW 6.9 mph - N/A   Mostly Cloudy
1:40 PM 87.8 °F 97.6 °F 75.2 °F 66% 29.83 in 10.0 mi WSW 6.9 mph - N/A   Mostly Cloudy
2:40 PM 87.8 °F 99.7 °F 77.0 °F 70% 29.80 in 10.0 mi SW 9.2 mph - N/A   Mostly Cloudy
3:40 PM 87.8 °F 99.7 °F 77.0 °F 70% 29.80 in 10.0 mi SW 9.2 mph - N/A   Mostly Cloudy
4:40 PM 86.0 °F 96.9 °F 77.0 °F 74% 29.79 in 10.0 mi SW 9.2 mph - N/A   Mostly Cloudy
5:40 PM 82.4 °F 90.9 °F 77.0 °F 84% 29.81 in 10.0 mi NE 11.5 mph - N/A   Mostly Cloudy
6:40 PM 82.4 °F 90.9 °F 77.0 °F 84% 29.81 in 10.0 mi NE 11.5 mph - N/A   Mostly Cloudy
7:40 PM 77.0 °F - 73.4 °F 89% 29.87 in 10.0 mi NE 11.5 mph - N/A   Scattered Clouds
8:40 PM 77.0 °F - 73.4 °F 89% 29.89 in 10.0 mi East 8.1 mph - N/A   Scattered Clouds
9:40 PM 77.0 °F - 73.4 °F 89% 29.77 in 10.0 mi East 6.9 mph - N/A   Scattered Clouds
10:40 PM 77.0 °F - 73.4 °F 89% 29.92 in 10.0 mi Calm Calm - N/A   Scattered Clouds
11:40 PM 77.0 °F - 73.4 °F 89% 29.91 in 10.0 mi Calm Calm - N/A   Scattered Clouds